User: anonymous   Login
Location: Ballingbuur
(53.0000°N, 5.7667°E)
Time: 03:52:44
(UTC+00:00)
Language:

Cosmos 1745 Rocket - Orbit

View from above orbital plane
View from above orbital plane
View from above satellite
View from above satellite

Ground track
Ground track

The orbit data is extracted from the following two-line orbital elements,

1 16728U 86037B   21058.54696841 -.00000063  00000-0 -79696-4 0  9999
2 16728  82.9524  55.4164 0031534  25.3904  94.7765 13.76740848746250
Epoch (UTC): 27 February 2021 13:07:38
Eccentricity: 0.0031534
inclination: 82.9524°
perigee height: 952 km
apogee height: 998 km
right ascension of ascending node: 55.4164°
argument of perigee: 25.3904°
revolutions per day: 13.76740848
mean anomaly at epoch: 94.7765°
orbit number at epoch: 74625

The dashed part of the orbit path shows where the satellite is in the earth's shadow,  

DLR